Livingston, MT

3:43 AM MST on December 09, 2016 (GMT -0700)
Mission

Weather History for KLVM - February, 2014

Change the Weather History Date:

Sunday, February 9, 2014

  Actual Average Record
Temperature  
Mean Temperature 4 °F 28 °F  
Max Temperature 7 °F 38 °F 63 °F (1996)
Min Temperature 0 °F 18 °F -16 °F (1959)
Degree Days  
Heating Degree Days 61 37  
Month to date heating degree days 572 334  
Since 1 July heating degree days 4517 4675  
Cooling Degree Days 0 0  
Month to date cooling degree days 0  
Year to date cooling degree days 0  
Moisture  
Dew Point -4 °F    
Average Humidity 78    
Maximum Humidity 87    
Minimum Humidity 68    
Precipitation  
Precipitation 0.03 in 0.01 in 0.36 in (1972)
Month to date precipitation 0.07 0.14  
Year to date precipitation 0.48 0.63  
Sea Level Pressure  
Sea Level Pressure 30.13 in    
Wind  
Wind Speed 7 mph (East)    
Max Wind Speed 21 mph    
Max Gust Speed 24 mph    
Visibility 4 miles    
Events Snow    
T = Trace of Precipitation, MM = Missing Value Source: NWS Daily Summary

Daily Weather History Graph

Daily Weather History Graph

Search for Another Location

Airport or City:

Trip Planner

Search our weather history database for the weather conditions in past years. The results will help you decide how hot, cold, wet, or windy it might be!

Date:

Astronomy

Feb. 09, 2014 Rise Set
Actual Time 7:32 AM MST 5:39 PM MST
Civil Twilight 7:01 AM MST 6:10 PM MST
Nautical Twilight 6:26 AM MST 6:46 PM MST
Astronomical Twilight 5:52 AM MST 7:20 PM MST
Moon 1:17 PM MST 3:45 AM MST
Length of Visible Light 11h 09m
Length of Day
10h 07m
Waxing Gibbous, 77% of the Moon is Illuminated
Feb 9
Waxing Gibbous
Feb 14
Full
Feb 22
Last Quarter
Mar 1
New
Mar 8
First Quarter

Hourly Weather History & Observations

Time (MST) Temp. Windchill Dew Point Humidity Pressure Visibility Wind Dir Wind Speed Gust Speed Precip Events Conditions
12:48 AM 1.4 °F -16.1 °F -2.2 °F 85% 30.03 in 2.5 mi East 12.7 mph - 0.00 in Snow Light Snow
12:53 AM 1.9 °F -14.7 °F -2.9 °F 80% 30.29 in 2.0 mi East 11.5 mph - 0.00 in Snow Light Snow
1:07 AM 1.9 °F -14.7 °F -2.9 °F 80% 30.02 in 1.8 mi East 11.5 mph - 0.00 in Snow Light Snow
1:53 AM 1.9 °F -14.7 °F -2.9 °F 80% 30.26 in 1.2 mi East 11.5 mph - 0.01 in Snow Light Snow
2:05 AM 1.9 °F -16.2 °F -2.9 °F 80% 30.00 in 1.0 mi East 13.8 mph - 0.00 in Snow Light Snow
2:18 AM 1.9 °F -16.2 °F -2.9 °F 80% 30.00 in 1.2 mi East 13.8 mph - 0.00 in Snow Light Snow
2:30 AM 1.9 °F -15.5 °F -2.9 °F 80% 29.99 in 1.0 mi East 12.7 mph - 0.00 in Snow Light Snow
2:53 AM 1.9 °F -16.2 °F -2.9 °F 80% 30.25 in 1.0 mi ENE 13.8 mph - 0.01 in Snow Light Snow
3:00 AM 1.9 °F -17.5 °F -4.0 °F 76% 29.99 in 0.8 mi East 16.1 mph - 0.00 in Snow Light Snow
3:08 AM 1.9 °F -16.9 °F -4.0 °F 76% 29.99 in 1.2 mi East 15.0 mph - 0.00 in Snow Light Snow
3:25 AM 1.9 °F -16.9 °F -4.0 °F 76% 29.99 in 1.8 mi East 15.0 mph - 0.00 in Snow Light Snow
3:53 AM 1.9 °F -18.7 °F -4.0 °F 76% 30.22 in 2.0 mi East 18.4 mph - 0.00 in Snow Light Snow
4:22 AM 1.0 °F -19.3 °F -4.0 °F 79% 29.96 in 1.5 mi East 17.3 mph - 0.00 in Snow Light Snow
4:53 AM 1.0 °F -19.9 °F -4.0 °F 79% 30.21 in 1.5 mi East 18.4 mph - 0.01 in Snow Light Snow
5:06 AM 1.0 °F -18.7 °F -5.1 °F 75% 29.96 in 2.0 mi East 16.1 mph - 0.00 in Snow Light Snow
5:15 AM 1.0 °F -19.3 °F -5.1 °F 75% 29.97 in 1.5 mi East 17.3 mph - 0.00 in Snow Light Snow
5:26 AM 1.0 °F -19.3 °F -5.1 °F 75% 29.97 in 0.8 mi East 17.3 mph - 0.00 in Snow Light Snow
5:40 AM 1.0 °F -18.0 °F -5.1 °F 75% 29.97 in 0.5 mi East 15.0 mph - 0.00 in Snow Snow
5:49 AM 1.4 °F -16.1 °F -5.8 °F 72% 29.99 in 0.5 mi East 12.7 mph - 0.00 in Snow Snow
5:53 AM 1.0 °F -18.0 °F -5.1 °F 75% 30.26 in 0.5 mi East 15.0 mph - 0.00 in Snow Snow
6:01 AM 1.0 °F -16.6 °F -5.1 °F 75% 29.99 in 0.8 mi East 12.7 mph - 0.00 in Snow Light Snow
6:24 AM -0.0 °F -19.4 °F -5.1 °F 79% 29.99 in 0.5 mi East 15.0 mph - 0.00 in Snow Snow
6:53 AM -0.0 °F -16.3 °F -5.1 °F 79% 30.27 in 0.8 mi East 10.4 mph - 0.00 in Snow Light Snow
6:55 AM -0.0 °F -17.1 °F -5.1 °F 79% 29.99 in 1.0 mi East 11.5 mph - 0.00 in Snow Light Snow
7:06 AM -0.0 °F -16.3 °F -6.0 °F 76% 30.00 in 1.2 mi East 10.4 mph - 0.00 in Snow Light Snow
7:19 AM -0.0 °F -16.3 °F -6.0 °F 76% 29.99 in 1.0 mi East 10.4 mph - 0.00 in Snow Light Snow
7:29 AM -0.0 °F -17.1 °F -6.0 °F 76% 29.99 in 2.0 mi East 11.5 mph - 0.00 in Snow Light Snow
7:33 AM -0.0 °F -15.3 °F -5.1 °F 79% 29.99 in 3.0 mi East 9.2 mph - 0.00 in Snow Light Snow
7:53 AM -0.0 °F -16.3 °F -5.1 °F 79% 30.26 in 6.0 mi East 10.4 mph - 0.00 in   Haze
8:53 AM 1.0 °F -14.0 °F -5.1 °F 75% 30.30 in 10.0 mi East 9.2 mph - N/A   Overcast
9:53 AM 1.9 °F -11.8 °F -5.1 °F 72% 30.34 in 8.0 mi East 8.1 mph - 0.00 in Snow Light Snow
10:08 AM 1.0 °F -11.7 °F -5.1 °F 75% 30.05 in 1.8 mi East 6.9 mph - 0.00 in Snow Light Snow
10:17 AM 1.0 °F -11.7 °F -5.1 °F 75% 30.05 in 2.5 mi East 6.9 mph - 0.00 in Snow Light Snow
10:22 AM 1.9 °F -9.2 °F -5.1 °F 72% 30.05 in 1.0 mi ESE 5.8 mph - 0.00 in Snow Light Snow
10:29 AM 1.9 °F -7.6 °F -4.0 °F 76% 30.05 in 0.5 mi East 4.6 mph - 0.00 in Snow Snow
10:40 AM 1.9 °F -7.6 °F -4.0 °F 76% 30.05 in 1.2 mi East 4.6 mph - 0.00 in Snow Light Snow
10:53 AM 1.9 °F - -4.0 °F 76% 30.35 in 2.0 mi Calm Calm - 0.00 in Snow Light Snow
11:03 AM 1.9 °F - -2.9 °F 80% 30.05 in 3.0 mi Calm Calm - 0.00 in Snow Light Snow
11:53 AM 1.9 °F -10.6 °F -4.0 °F 76% 30.34 in 10.0 mi WSW 6.9 mph - 0.00 in   Overcast
12:53 PM 3.0 °F -4.4 °F -5.1 °F 69% 30.30 in 10.0 mi WSW 3.5 mph - N/A   Overcast
1:53 PM 3.9 °F - -4.0 °F 70% 30.27 in 10.0 mi Calm Calm - N/A   Overcast
2:53 PM 5.0 °F -2.1 °F -2.9 °F 70% 30.27 in 10.0 mi SE 3.5 mph - N/A   Overcast
3:53 PM 6.1 °F - -2.9 °F 67% 30.26 in 10.0 mi Calm Calm - N/A   Overcast
4:53 PM 6.1 °F -0.9 °F -2.9 °F 67% 30.25 in 10.0 mi WSW 3.5 mph - N/A   Overcast
5:53 PM 7.0 °F - -2.9 °F 64% 30.26 in 10.0 mi Calm Calm - N/A   Overcast
6:53 PM 6.1 °F - -2.0 °F 69% 30.26 in 10.0 mi Calm Calm - N/A   Overcast
7:53 PM 3.0 °F -8.0 °F -2.9 °F 76% 30.25 in 10.0 mi East 5.8 mph - N/A   Mostly Cloudy
8:53 PM 3.0 °F -4.4 °F -4.0 °F 73% 30.26 in 10.0 mi East 3.5 mph - N/A   Overcast
9:53 PM 3.0 °F -6.4 °F -2.9 °F 76% 30.25 in 10.0 mi WNW 4.6 mph - N/A   Overcast
10:53 PM 5.0 °F -4.1 °F -2.0 °F 73% 30.22 in 10.0 mi West 4.6 mph - 0.00 in   Overcast
11:53 PM 6.1 °F -4.3 °F -0.9 °F 73% 30.22 in 10.0 mi West 5.8 mph - N/A   Overcast